[[{"header":{"parameterUnit":"m.s-1","parameterCategory":1,"la1":30.2991,"la2":30.254,"lo1":-89.0895,"lo2":-89.0444,"dy":0.0017,"dx":0.0017,"nx":28,"ny":28,"refTime":"2024-03-10T03:00:00:Z","depth":0,"parameterNumber":2,"parameterNumberName":"U-component_of_WINDS"},"data":[0,0,0,0,0,0,0,0,0,0,0,0,0,0,0,0,0,0,0,0,0,0,0,0,0,0,0,0,0,0,0,0,0,0,0,0,0,0,0,0,0,0,0,0,0,0,0,0,0,0,0,0,0,0,0,0,0,0,-5.0264,-5.0264,0,-5.0301,-5.0302,-5.0302,-5.0209,-5.0206,-5.0203,-5.02,-5.024,-5.0243,-5.0247,0,0,0,0,0,0,0,0,0,0,0,0,0,-5.0112,-5.0115,-5.0264,-5.0264,-5.0265,-5.0301,-5.0302,-5.0302,-5.021,-5.0206,-5.0202,-5.0199,-5.0238,-5.0243,-5.0247,0,0,0,0,0,0,0,0,0,0,0,0,0,-5.0167,-5.0116,-5.0264,-5.0223,-5.0219,-5.0301,-5.0302,-5.0303,-5.021,-5.0206,-5.0201,-5.0197,-5.0237,-5.0243,-5.0248,-5.0372,0,0,-5.0265,-5.0268,0,0,0,0,0,0,0,0,-5.0164,-5.0172,-5.0228,-5.0226,-5.0222,-5.0246,-5.0263,-5.0326,-5.0211,-5.0214,-5.02,-5.0195,-5.0245,-5.025,-5.0267,-5.0373,-5.0375,-5.0266,-5.0269,-5.0272,-5.0273,0,0,0,0,0,0,0,-5.016,-5.017,-5.0279,-5.0229,-5.0226,-5.0203,-5.0206,-5.0274,-5.0254,-5.0213,-5.0207,-5.0212,-5.0243,-5.0262,-5.0267,-5.0376,-5.0266,-5.0271,-5.0274,-5.0277,-5.0585,-5.059,0,0,0,0,0,0,-5.0161,-5.0168,-5.0277,-5.028,-5.0181,-5.0209,-5.0212,-5.0243,-5.0253,-5.025,-5.0216,-5.0208,-5.0254,-5.0261,-5.0268,-5.0413,-5.0272,-5.0277,-5.028,-5.0581,-5.0586,-5.0592,0,0,0,0,0,0,-5.0158,-5.0172,-5.0276,-5.0222,-5.0233,-5.0216,-5.0251,-5.0246,-5.0264,-5.0255,-5.0251,-5.0239,-5.0251,-5.026,-5.0346,-5.0414,-5.028,-5.0285,-5.0575,-5.0582,-5.0589,-5.0705,0,0,0,0,0,0,-5.0154,-5.0171,-5.0218,-5.0224,-5.0237,-5.0354,-5.0256,-5.025,-5.0275,-5.0264,-5.0275,-5.0273,-5.0248,-5.0339,-5.0352,-5.0419,-5.0289,-5.0569,-5.0578,-5.0587,-5.0695,-5.0715,-5.0733,0,0,0,0,0,-5.0149,-5.0249,-5.0221,-5.0235,-5.0295,-5.0358,-5.0365,-5.0334,-5.028,-5.0327,-5.0321,-5.0273,-5.0404,-5.0348,-5.0363,-5.0432,-5.0564,-5.0576,-5.0586,-5.0687,-5.0712,-5.0732,0,0,0,0,0,0,-5.0252,-5.0249,-5.0218,-5.0323,-5.0341,-5.0342,-5.04,-5.0361,-5.0396,-5.0385,-5.0345,-5.0349,-5.0443,-5.0446,-5.0384,-5.0552,-5.0475,-5.0489,-5.0547,-5.057,-5.0588,-5.0586,-5.0294,0,0,0,0,0,-5.0287,-5.0339,-5.0333,-5.0427,-5.0437,-5.0418,-5.0444,-5.0419,-5.0436,-5.0444,-5.0444,-5.0463,-5.0508,-5.0539,-5.0581,-5.0695,-5.0696,-5.075,-5.0769,-5.0784,-5.0797,-5.0858,-5.0882,-5.0627,-5.0627,-5.0627,0,0,-5.036,-5.0365,-5.04,-5.0447,-5.0459,-5.0513,-5.0425,-5.0486,-5.0526,-5.0453,-5.0534,-5.0536,-5.0554,-5.0656,-5.07,-5.0661,-5.0868,-5.0798,-5.081,-5.0815,-5.0872,-5.0896,-5.0918,-5.0634,-5.0633,-5.0632,0,0,-5.052,-5.0529,-5.0608,-5.0621,-5.0639,-5.0625,-5.0644,-5.0651,-5.0649,-5.073,-5.0676,-5.0724,-5.0803,-5.0818,-5.0837,-5.1004,-5.096,-5.1018,-5.1116,-5.1176,-5.1196,-5.1214,-5.1273,-5.1295,-5.1031,-5.1031,-5.1031,0,-5.0609,-5.0688,-5.0653,-5.0718,-5.0741,-5.0677,-5.0756,-5.0771,-5.0802,-5.0819,-5.0775,-5.0873,-5.0882,-5.0986,-5.1026,-5.1043,-5.1064,-5.1017,-5.1196,-5.1213,-5.1229,-5.1286,-5.1308,-5.1038,-5.1037,-5.1037,-5.1036,0,-5.0796,-5.0852,-5.0913,-5.0945,-5.0974,-5.1047,-5.1022,-5.1057,-5.1029,-5.102,-5.1103,-5.1111,-5.1153,-5.1175,-5.1149,-5.1276,-5.1251,-5.1203,-5.1124,-5.1261,-5.1314,-5.1335,-5.1048,-5.1045,-5.1043,-5.1042,0,0,-5.1022,-5.1034,-5.1057,-5.107,-5.1086,-5.1129,-5.1198,-5.1239,-5.1269,-5.1293,-5.135,-5.1419,-5.1373,-5.1394,-5.1369,-5.1422,-5.1554,-5.1366,-5.1366,-5.1401,-5.1695,-5.1732,-5.1757,-5.1525,-5.1529,-5.1532,-5.1693,0,-5.1181,-5.13,-5.127,-5.1388,-5.144,-5.138,-5.144,-5.1456,-5.145,-5.1493,-5.1485,-5.1535,-5.1471,-5.1483,-5.1533,-5.1527,-5.1612,-5.1515,-5.1578,-5.1581,-5.1576,-5.1784,-5.1824,-5.1975,-5.1713,-5.1717,-5.1719,0,-5.1382,-5.1413,-5.1537,-5.1544,-5.1564,-5.1619,-5.1654,-5.1696,-5.1713,-5.1705,-5.1729,-5.1693,-5.1761,-5.1682,-5.1776,-5.1711,-5.1735,-5.1736,-5.1742,-5.1746,-5.1659,-5.1795,-5.2022,-5.2045,-5.1751,-5.1749,-5.1746,0,-5.1535,-5.1608,-5.1691,-5.1705,-5.1715,-5.1755,-5.1762,-5.1775,-5.1801,-5.1832,-5.1848,-5.1887,-5.1908,-5.1939,-5.1915,-5.1859,-5.2013,-5.1932,-5.2008,-5.2009,-5.2043,-5.2042,-5.2278,-5.2059,-5.2059,-5.2058,-5.2058,0,-5.1716,-5.1793,-5.176,-5.1812,-5.1897,-5.1862,-5.1948,-5.1947,-5.1959,-5.2009,-5.196,-5.2008,-5.1973,-5.2018,-5.2,-5.2081,-5.2091,-5.2086,-5.208,-5.209,-5.2091,-5.2106,-5.2095,-5.2064,-5.2063,-5.2062,-5.2061,0,-5.1901,-5.1882,-5.1969,-5.1972,-5.1974,-5.2037,-5.204,-5.2087,-5.2077,-5.2141,-5.2154,-5.2138,-5.2189,-5.2168,-5.2222,-5.2209,-5.2313,-5.2293,-5.2307,-5.2302,-5.238,-5.2373,-5.2634,-5.2666,-5.2426,-5.2429,-5.2431,0,-5.2018,-5.2076,-5.2085,-5.2115,-5.2125,-5.2174,-5.2201,-5.2169,-5.2199,-5.2223,-5.2268,-5.2314,-5.235,-5.2434,-5.2427,-5.2468,-5.2449,-5.2538,-5.2455,-5.2464,-5.2451,-5.2447,-5.2453,-5.2554,-5.2557,-5.2559,-5.2561,0,-5.2227,-5.2214,-5.2255,-5.2292,-5.2326,-5.2354,-5.2377,-5.2405,-5.2374,-5.241,-5.2461,-5.2489,-5.2543,-5.259,-5.2626,-5.2633,-5.2593,-5.2587,-5.2607,-5.2619,-5.2624,-5.2622,-5.2353,-5.2582,-5.258,-5.2578,-5.2577,-5.2576,-5.2381,-5.2431,-5.2445,-5.2491,-5.2506,-5.2529,-5.2574,-5.2569,-5.2612,-5.2653,-5.2632,-5.2692,-5.2708,-5.2752,-5.2764,-5.2811,-5.2776,-5.2804,-5.2812,-5.2819,-5.283,-5.2617,-5.2817,-5.2816,-5.2816,-5.2815,-5.2815,0,-5.2588,-5.2594,-5.2637,-5.2672,-5.2709,-5.2667,-5.2691,-5.2725,-5.2778,-5.2796,-5.2832,-5.2891,-5.2936,-5.2933,-5.2975,-5.3013,-5.2996,-5.3025,-5.3022,-5.3024,-5.2858,-5.2837,-5.3038,-5.3038,-5.3038,-5.3038,-5.3038,-5.3038,-5.2699,-5.2781,-5.277,-5.2858,-5.2863,-5.2921,-5.2939,-5.296,-5.2974,-5.3043,-5.308,-5.3077,-5.3087,-5.3129,-5.3169,-5.3167,-5.3185,-5.3221,-5.3213,-5.3058,-5.3036,-5.3015,-5.2994,-5.3226,-5.3226,-5.3374,-5.3376,-5.3377]},{"header":{"parameterUnit":"m.s-1","parameterCategory":1,"la1":30.2991,"la2":30.254,"lo1":-89.0895,"lo2":-89.0444,"dy":0.0017,"dx":0.0017,"nx":28,"ny":28,"refTime":"2024-03-10T03:00:00:Z","depth":0,"parameterNumber":3,"parameterNumberName":"V-component_of_WINDS"},"data":[0,0,0,0,0,0,0,0,0,0,0,0,0,0,0,0,0,0,0,0,0,0,0,0,0,0,0,0,0,0,0,0,0,0,0,0,0,0,0,0,0,0,0,0,0,0,0,0,0,0,0,0,0,0,0,0,0,0,-2.036,-2.036,0,-2.0376,-2.0376,-2.0376,-2.0348,-2.0347,-2.0346,-2.0345,-2.0361,-2.0363,-2.0364,0,0,0,0,0,0,0,0,0,0,0,0,0,-2.0304,-2.0305,-2.036,-2.036,-2.0361,-2.0376,-2.0376,-2.0376,-2.0348,-2.0347,-2.0346,-2.0345,-2.0361,-2.0363,-2.0364,0,0,0,0,0,0,0,0,0,0,0,0,0,-2.0325,-2.0306,-2.036,-2.0348,-2.0347,-2.0376,-2.0376,-2.0377,-2.0348,-2.0347,-2.0345,-2.0344,-2.036,-2.0362,-2.0364,-2.0405,0,0,-2.037,-2.0371,0,0,0,0,0,0,0,0,-2.0324,-2.0327,-2.035,-2.0349,-2.0348,-2.0359,-2.0362,-2.0386,-2.0349,-2.0348,-2.0345,-2.0343,-2.0362,-2.0363,-2.037,-2.0406,-2.0407,-2.0371,-2.0372,-2.0373,-2.0373,0,0,0,0,0,0,0,-2.0323,-2.0326,-2.0366,-2.035,-2.0349,-2.0342,-2.0343,-2.0367,-2.0363,-2.0348,-2.0346,-2.0348,-2.0361,-2.0368,-2.037,-2.0407,-2.0371,-2.0372,-2.0374,-2.0374,-2.0476,-2.0478,0,0,0,0,0,0,-2.0323,-2.0325,-2.0366,-2.0367,-2.0332,-2.0344,-2.0346,-2.0357,-2.0362,-2.0362,-2.0349,-2.0347,-2.0365,-2.0367,-2.037,-2.0418,-2.0373,-2.0374,-2.0376,-2.0475,-2.0477,-2.0478,0,0,0,0,0,0,-2.0322,-2.0327,-2.0365,-2.0346,-2.035,-2.0346,-2.0359,-2.0358,-2.0365,-2.0363,-2.0362,-2.0357,-2.0364,-2.0367,-2.0396,-2.0418,-2.0375,-2.0377,-2.0473,-2.0475,-2.0477,-2.0513,0,0,0,0,0,0,-2.032,-2.0326,-2.0342,-2.0346,-2.0351,-2.0392,-2.0361,-2.0359,-2.0368,-2.0365,-2.037,-2.037,-2.0363,-2.0394,-2.0398,-2.042,-2.0379,-2.0471,-2.0474,-2.0477,-2.051,-2.0516,-2.0522,0,0,0,0,0,-2.0318,-2.0352,-2.0343,-2.0348,-2.0371,-2.0393,-2.0396,-2.0387,-2.037,-2.0386,-2.0384,-2.037,-2.0415,-2.0397,-2.0402,-2.0424,-2.047,-2.0473,-2.0476,-2.0508,-2.0515,-2.0522,0,0,0,0,0,0,-2.0351,-2.0352,-2.0343,-2.0379,-2.0386,-2.0388,-2.0408,-2.0396,-2.0408,-2.0405,-2.0393,-2.0395,-2.0426,-2.0428,-2.0408,-2.0463,-2.0439,-2.0444,-2.0461,-2.0468,-2.0474,-2.0473,-2.038,0,0,0,0,0,-2.0363,-2.0381,-2.0381,-2.0413,-2.0417,-2.0412,-2.0421,-2.0414,-2.0421,-2.0423,-2.0425,-2.0432,-2.0447,-2.0458,-2.0472,-2.051,-2.051,-2.0528,-2.0534,-2.0539,-2.0543,-2.0562,-2.0569,-2.0489,-2.0489,-2.0489,0,0,-2.0387,-2.0389,-2.0402,-2.0419,-2.0424,-2.0442,-2.0414,-2.0436,-2.0449,-2.0427,-2.0454,-2.0455,-2.0462,-2.0496,-2.051,-2.0498,-2.0565,-2.0543,-2.0547,-2.0548,-2.0566,-2.0573,-2.058,-2.0492,-2.0491,-2.0491,0,0,-2.044,-2.0444,-2.047,-2.0475,-2.0482,-2.0479,-2.0485,-2.0489,-2.0488,-2.0516,-2.0499,-2.0514,-2.0542,-2.0547,-2.0554,-2.0607,-2.0594,-2.0612,-2.0643,-2.0661,-2.0668,-2.0673,-2.0691,-2.0698,-2.0616,-2.0616,-2.0616,0,-2.0468,-2.0496,-2.0485,-2.0507,-2.0515,-2.0495,-2.0521,-2.0527,-2.0538,-2.0544,-2.053,-2.0563,-2.0567,-2.06,-2.0613,-2.0619,-2.0626,-2.0611,-2.0667,-2.0673,-2.0678,-2.0695,-2.0702,-2.0618,-2.0618,-2.0618,-2.0618,0,-2.053,-2.0549,-2.057,-2.0581,-2.0591,-2.0615,-2.0608,-2.0619,-2.061,-2.0608,-2.0635,-2.0638,-2.0653,-2.066,-2.0652,-2.0692,-2.0684,-2.0669,-2.0645,-2.0688,-2.0704,-2.071,-2.0621,-2.062,-2.062,-2.0619,0,0,-2.0605,-2.0609,-2.0617,-2.0621,-2.0627,-2.0642,-2.0664,-2.0678,-2.0687,-2.0695,-2.0714,-2.0736,-2.0722,-2.0729,-2.0722,-2.0738,-2.0779,-2.0721,-2.072,-2.0731,-2.0822,-2.0834,-2.0842,-2.077,-2.0771,-2.0772,-2.0822,0,-2.0657,-2.0696,-2.0687,-2.0725,-2.0742,-2.0723,-2.0742,-2.0748,-2.0745,-2.0759,-2.0757,-2.0773,-2.0753,-2.0757,-2.0772,-2.0771,-2.0797,-2.0767,-2.0786,-2.0787,-2.0785,-2.085,-2.0862,-2.0909,-2.0828,-2.0829,-2.083,0,-2.0723,-2.0734,-2.0773,-2.0775,-2.0782,-2.08,-2.081,-2.0824,-2.0829,-2.0826,-2.0834,-2.0823,-2.0844,-2.0819,-2.0849,-2.0828,-2.0835,-2.0836,-2.0837,-2.0839,-2.0811,-2.0853,-2.0923,-2.093,-2.084,-2.0839,-2.0838,0,-2.0773,-2.0797,-2.0823,-2.0828,-2.0831,-2.0843,-2.0845,-2.0849,-2.0857,-2.0867,-2.0872,-2.0884,-2.089,-2.09,-2.0891,-2.0874,-2.0922,-2.0896,-2.092,-2.092,-2.093,-2.093,-2.1003,-2.0936,-2.0936,-2.0936,-2.0935,0,-2.0832,-2.0857,-2.0846,-2.0862,-2.0889,-2.0878,-2.0904,-2.0904,-2.0907,-2.0923,-2.0907,-2.0922,-2.091,-2.0924,-2.0918,-2.0943,-2.0946,-2.0944,-2.0942,-2.0945,-2.0945,-2.0949,-2.0946,-2.0937,-2.0937,-2.0937,-2.0936,0,-2.0892,-2.0886,-2.0913,-2.0913,-2.0914,-2.0934,-2.0934,-2.0948,-2.0945,-2.0964,-2.0968,-2.0963,-2.0978,-2.0971,-2.0987,-2.0982,-2.1014,-2.1008,-2.1012,-2.101,-2.1034,-2.1031,-2.1112,-2.1121,-2.1049,-2.1049,-2.105,0,-2.093,-2.0949,-2.095,-2.0959,-2.0962,-2.0977,-2.0985,-2.0974,-2.0983,-2.099,-2.1004,-2.1017,-2.1028,-2.1053,-2.105,-2.1062,-2.1056,-2.1083,-2.1057,-2.106,-2.1055,-2.1054,-2.1055,-2.1088,-2.1089,-2.109,-2.109,0,-2.0998,-2.0993,-2.1005,-2.1016,-2.1026,-2.1034,-2.1041,-2.1049,-2.1038,-2.1049,-2.1064,-2.1072,-2.1088,-2.1101,-2.1111,-2.1113,-2.11,-2.1098,-2.1104,-2.1107,-2.1109,-2.1108,-2.1026,-2.1097,-2.1096,-2.1095,-2.1095,-2.1095,-2.1047,-2.1062,-2.1066,-2.1079,-2.1083,-2.1089,-2.1103,-2.11,-2.1113,-2.1125,-2.1117,-2.1135,-2.1138,-2.115,-2.1154,-2.1167,-2.1156,-2.1165,-2.1167,-2.1169,-2.1172,-2.1107,-2.1169,-2.1168,-2.1168,-2.1168,-2.1168,0,-2.1113,-2.1114,-2.1127,-2.1136,-2.1147,-2.1133,-2.1139,-2.1149,-2.1165,-2.1169,-2.1179,-2.1196,-2.1209,-2.1206,-2.1218,-2.1229,-2.1223,-2.1232,-2.1231,-2.1231,-2.1181,-2.1175,-2.1236,-2.1236,-2.1236,-2.1236,-2.1236,-2.1236,-2.1149,-2.1173,-2.1169,-2.1195,-2.1195,-2.1212,-2.1217,-2.1222,-2.1225,-2.1245,-2.1255,-2.1253,-2.1255,-2.1266,-2.1277,-2.1276,-2.1281,-2.1292,-2.1289,-2.1242,-2.1235,-2.1229,-2.1222,-2.1293,-2.1293,-2.1337,-2.1338,-2.1338]}]]